FW5814 Weather Reports


time (UTC)temp
C
wind
direction
speed
KPH
gust
KPH
rain 1hr
cm
rain 24hr
cm
rain mn
cm
humidity
%
barometer
mb
20260505181529 27 360 16.1 33.8 0.00 0.00 0.00 71 1004.6
20260505181026 27 195 20.9 35.4 0.00 0.00 0.00 70 1004.7
20260505180527 27 183 22.5 35.4 0.00 0.00 0.00 70 1004.6
20260505180028 26 179 17.7 35.4 0.00 0.00 0.00 72 1004.6
20260505175526 26 215 20.9 38.6 0.00 0.00 0.00 71 1004.4
20260505175057 26 186 25.7 38.6 0.00 0.00 0.00 72 1004.4
20260505174602 26 203 25.7 38.6 0.00 0.00 0.00 72 1004.4
20260505174100 26 205 22.5 33.8 0.00 0.00 0.00 72 1004.6
20260505173553 26 201 16.1 32.2 0.00 0.00 0.00 74 1004.5
20260505173052 26 186 20.9 37.0 0.00 0.00 0.00 74 1004.5
20260505172549 25 189 22.5 37.0 0.00 0.00 0.00 74 1004.5
20260505172021 25 232 24.1 35.4 0.00 0.00 0.00 73 1004.6
20260505171523 25 226 25.7 35.4 0.00 0.00 0.00 74 1004.8
20260505171019 25 225 20.9 38.6 0.00 0.00 0.00 74 1004.7
20260505170519 25 215 19.3 38.6 0.00 0.00 0.00 74 1004.7
20260505170020 25 217 24.1 32.2 0.00 0.00 0.00 74 1004.8
20260505165518 25 225 20.9 33.8 0.00 0.00 0.00 74 1004.8
20260505165016 25 238 22.5 33.8 0.00 0.00 0.00 74 1004.8
20260505164515 25 230 20.9 40.2 0.00 0.00 0.00 74 1004.8
20260505164025 25 209 27.4 40.2 0.00 0.00 0.00 74 1004.6
20260505163514 25 220 24.1 35.4 0.00 0.00 0.00 74 1004.5
20260505163013 25 223 22.5 41.8 0.00 0.00 0.00 74 1004.4
20260505162512 25 215 25.7 41.8 0.00 0.00 0.00 74 1004.5
20260505162011 25 232 24.1 40.2 0.00 0.00 0.00 75 1004.6
20260505161512 25 200 24.1 43.5 0.00 0.00 0.00 75 1004.5
20260505161014 25 226 22.5 43.5 0.00 0.00 0.00 75 1004.6
20260505160511 25 202 24.1 38.6 0.00 0.00 0.00 74 1004.7
20260505153031 23 206 24.1 33.8 0.00 0.00 0.00 77 1005.0
20260505152531 23 208 20.9 37.0 0.00 0.00 0.00 79 1004.9
20260505152030 23 223 19.3 32.2 0.00 0.00 0.00 79 1005.0
20260505151526 23 229 17.7 33.8 0.00 0.00 0.00 79 1005.0
20260505151025 23 218 22.5 38.6 0.00 0.00 0.00 80 1004.9
20260505150524 23 209 20.9 37.0 0.00 0.00 0.00 80 1005.1
20260505140513 22 196 20.9 32.2 0.00 0.00 0.00 81 1005.0
20260505124610 21 199 14.5 25.7 0.00 0.00 0.00 84 1004.5
20260505124058 21 195 14.5 25.7 0.00 0.00 0.00 84 1004.4
20260505123557 21 183 11.3 25.7 0.00 0.00 0.00 84 1004.3
20260505123101 21 213 16.1 25.7 0.00 0.00 0.00 84 1004.4
20260505122556 21 203 12.9 19.3 0.00 0.00 0.00 84 1004.2
20260505122057 21 215 12.9 20.9 0.00 0.00 0.00 84 1004.2
20260505121556 21 228 12.9 24.1 0.00 0.00 0.00 84 1004.2
20260505121056 21 227 12.9 24.1 0.00 0.00 0.00 84 1004.0
20260505120551 21 207 12.9 22.5 0.00 0.00 0.00 84 1003.9
20260505120108 21 212 14.5 20.9 0.00 0.00 0.00 84 1004.0
20260505115551 21 215 12.9 20.9 0.00 0.00 0.00 84 1003.9
20260505115055 21 192 14.5 22.5 0.00 0.00 0.00 84 1004.1
20260505114551 21 200 14.5 29.0 0.00 0.00 0.00 84 1004.2
20260505114050 21 198 11.3 29.0 0.00 0.00 0.00 84 1004.0
20260505113550 21 209 14.5 29.0 0.00 0.00 0.00 84 1003.9
20260505113054 21 211 16.1 25.7 0.00 0.00 0.00 84 1003.9
20260505112554 21 202 16.1 25.7 0.00 0.00 0.00 84 1003.8
20260505112049 21 197 16.1 22.5 0.00 0.00 0.00 85 1003.8
20260505111549 21 207 17.7 29.0 0.00 0.00 0.00 85 1003.9
20260505111018 21 165 17.7 25.7 0.00 0.00 0.00 85 1003.6
20260505110518 21 186 16.1 30.6 0.00 0.00 0.00 85 1003.7
20260505102013 21 198 17.7 33.8 0.00 0.00 0.00 84 1003.7
20260505101513 21 198 16.1 29.0 0.00 0.00 0.00 84 1003.6
20260505101012 21 193 16.1 29.0 0.00 0.00 0.00 84 1003.8
20260505100512 21 209 16.1 25.7 0.00 0.00 0.00 84 1003.8
20260505100017 21 209 14.5 24.1 0.00 0.00 0.00 84 1003.9
20260505095511 21 208 14.5 29.0 0.00 0.00 0.00 84 1004.1
20260505095011 21 205 16.1 29.0 0.00 0.00 0.00 84 1004.0
20260505094514 21 199 17.7 30.6 0.00 0.00 0.00 84 1004.0
20260505094040 21 222 17.7 32.2 0.00 0.00 0.00 84 1004.2
20260505093541 21 186 19.3 29.0 0.00 0.00 0.00 84 1004.1
20260505093040 21 180 19.3 29.0 0.00 0.00 0.00 84 1004.2
20260505092540 21 214 17.7 32.2 0.00 0.00 0.00 84 1004.3
20260505092040 21 197 20.9 32.2 0.00 0.00 0.00 83 1004.3
20260505091540 21 206 17.7 29.0 0.00 0.00 0.00 83 1004.1
20260505091011 21 166 19.3 29.0 0.00 0.00 0.00 83 1004.0
20260505090512 21 208 19.3 32.2 0.00 0.00 0.00 83 1004.0
20260505090011 21 198 20.9 38.6 0.00 0.00 0.00 83 1004.0
20260505085511 21 212 22.5 32.2 0.00 0.00 0.00 83 1003.9
20260505085011 21 202 19.3 33.8 0.00 0.00 0.00 83 1004.0
20260505084517 21 175 19.3 33.8 0.00 0.00 0.00 83 1003.8
20260505084038 21 215 20.9 37.0 0.00 0.00 0.00 83 1003.8
20260505083542 21 193 19.3 30.6 0.00 0.00 0.00 83 1003.9
20260505083038 21 172 17.7 35.4 0.00 0.00 0.00 83 1004.0
20260505082538 21 205 19.3 32.2 0.00 0.00 0.00 83 1004.1
20260505082036 21 202 20.9 32.2 0.00 0.00 0.00 83 1004.3
20260505081543 21 225 20.9 33.8 0.00 0.00 0.00 83 1004.3
20260505081034 21 210 24.1 38.6 0.00 0.00 0.00 82 1004.3
20260505080532 21 175 24.1 38.6 0.00 0.00 0.00 82 1004.6
20260505080037 21 194 20.9 35.4 0.00 0.00 0.00 82 1004.7
20260505075535 21 211 19.3 32.2 0.00 0.00 0.00 82 1004.5
20260505075032 21 218 19.3 32.2 0.00 0.00 0.00 82 1004.6
20260505074531 21 186 20.9 32.2 0.00 0.00 0.00 82 1004.7
20260505074031 21 360 16.1 33.8 0.00 0.00 0.00 82 1004.6
20260505073531 21 360 22.5 33.8 0.00 0.00 0.00 83 1004.8
20260505073041 21 197 22.5 37.0 0.00 0.00 0.00 83 1004.9
20260505072528 21 209 17.7 33.8 0.00 0.00 0.00 83 1005.1
20260505072028 21 183 19.3 38.6 0.00 0.00 0.00 82 1005.1
20260505071545 21 190 22.5 38.6 0.00 0.00 0.00 82 1005.2
20260505071027 21 360 19.3 33.8 0.00 0.00 0.00 82 1005.3
20260505070523 21 360 22.5 35.4 0.00 0.00 0.00 82 1005.2
20260505070023 21 205 20.9 35.4 0.00 0.00 0.00 82 1005.3
20260505065522 21 360 16.1 37.0 0.00 0.00 0.00 82 1005.4
20260505065023 21 360 22.5 41.8 0.00 0.00 0.00 82 1005.5
20260505064525 21 360 19.3 30.6 0.00 0.00 0.00 82 1005.6
20260505064026 21 360 19.3 29.0 0.00 0.00 0.00 82 1005.4
20260505064023 21 360 17.7 29.0 0.00 0.00 0.00 82 1005.4
20260505063521 21 360 17.7 29.0 0.00 0.00 0.00 82 1005.6
20260505063021 21 360 19.3 30.6 0.00 0.00 0.00 82 1005.6
20260505062520 21 223 14.5 32.2 0.00 0.00 0.00 81 1005.8
20260505062022 21 224 16.1 32.2 0.00 0.00 0.00 81 1005.9
20260505061520 21 202 17.7 32.2 0.00 0.00 0.00 81 1005.7
20260505061022 21 225 19.3 30.6 0.00 0.00 0.00 81 1005.6
20260505060516 21 233 17.7 30.6 0.00 0.00 0.00 81 1005.8
20260505060016 21 246 17.7 30.6 0.00 0.00 0.00 80 1005.7
20260505055516 21 196 19.3 27.4 0.00 0.00 0.00 80 1005.7
20260505055016 21 186 17.7 25.7 0.00 0.00 0.00 80 1005.8
20260505054516 21 193 12.9 24.1 0.00 0.00 0.00 80 1005.8
20260505054016 21 185 12.9 35.4 0.00 0.00 0.00 80 1005.9
20260505053515 21 211 17.7 35.4 0.00 0.00 0.00 80 1005.8
20260505053023 21 215 16.1 25.7 0.00 0.00 0.00 79 1005.9
20260505052518 21 213 12.9 22.5 0.00 0.00 0.00 79 1005.9
20260505052014 21 199 14.5 24.1 0.00 0.00 0.00 79 1005.9
20260505051523 21 205 14.5 25.7 0.00 0.00 0.00 79 1006.1
20260505051016 22 200 16.1 24.1 0.00 0.00 0.00 78 1006.0
20260505050541 22 211 14.5 30.6 0.00 0.00 0.00 78 1006.0
20260505041514 22 175 12.9 22.5 0.00 0.00 0.00 76 1006.2
20260505041008 22 184 9.7 22.5 0.00 0.00 0.00 76 1006.2
20260505040541 22 225 11.3 22.5 0.00 0.00 0.00 76 1006.1
20260505040043 22 199 12.9 19.3 0.00 0.00 0.00 76 1006.0
20260505035538 22 221 9.7 16.1 0.00 0.00 0.00 75 1006.1
20260505035037 22 177 9.7 20.9 0.00 0.00 0.00 75 1005.8
20260505034538 22 190 9.7 20.9 0.00 0.00 0.00 75 1006.0
20260505034037 22 198 9.7 16.1 0.00 0.00 0.00 75 1006.0
20260505033507 22 187 6.4 20.9 0.00 0.00 0.00 74 1005.9
20260505033008 22 190 11.3 16.1 0.00 0.00 0.00 74 1006.0
20260505032507 22 191 11.3 17.7 0.00 0.00 0.00 74 1006.1
20260505032009 22 186 11.3 19.3 0.00 0.00 0.00 75 1006.0
20260505031507 22 216 9.7 19.3 0.00 0.00 0.00 75 1006.2
20260505031009 22 193 11.3 17.7 0.00 0.00 0.00 75 1006.2
20260505030502 22 194 9.7 16.1 0.00 0.00 0.00 75 1006.0
20260505030010 22 194 9.7 17.7 0.00 0.00 0.00 74 1005.8
20260505025504 22 198 11.3 17.7 0.00 0.00 0.00 75 1005.9
20260505025002 22 198 8.0 16.1 0.00 0.00 0.00 75 1006.0
20260505024502 22 190 9.7 14.5 0.00 0.00 0.00 75 1006.1
20260505024002 22 202 8.0 16.1 0.00 0.00 0.00 75 1005.9
20260505023501 22 180 6.4 16.1 0.00 0.00 0.00 75 1005.8
20260505023002 22 163 8.0 17.7 0.00 0.00 0.00 75 1005.8
20260505022602 22 197 8.0 14.5 0.00 0.00 0.00 75 1005.8
20260505022502 22 178 8.0 14.5 0.00 0.00 0.00 75 1005.8
20260505022100 22 175 8.0 16.1 0.00 0.00 0.00 74 1005.6
20260505022002 22 174 8.0 16.1 0.00 0.00 0.00 74 1005.8
20260505021500 22 182 8.0 16.1 0.00 0.00 0.00 74 1005.7
20260505021059 22 176 8.0 16.1 0.00 0.00 0.00 74 1005.6
20260505020559 22 183 6.4 14.5 0.00 0.00 0.00 74 1005.6
20260505015557 23 188 8.0 12.9 0.00 0.00 0.00 73 1005.8
20260505015102 23 190 8.0 14.5 0.00 0.00 0.00 73 1005.7
20260505014558 23 190 8.0 16.1 0.00 0.00 0.00 73 1005.8
20260505014058 23 185 8.0 14.5 0.00 0.00 0.00 72 1005.6
20260505013556 23 199 6.4 14.5 0.00 0.00 0.00 72 1005.6
20260505013056 23 194 6.4 12.9 0.00 0.00 0.00 71 1005.6
20260505012556 23 202 8.0 16.1 0.00 0.00 0.00 71 1005.4
20260505012058 23 197 9.7 25.7 0.00 0.00 0.00 71 1005.6
20260505011556 23 178 11.3 25.7 0.00 0.00 0.00 71 1005.5
20260505011155 23 198 6.4 14.5 0.00 0.00 0.00 71 1005.5
20260505010555 23 190 6.4 14.5 0.00 0.00 0.00 71 1005.5
20260505010024 23 360 9.7 16.1 0.00 0.00 0.00 70 1005.7
20260505005527 23 360 8.0 16.1 0.00 0.00 0.00 70 1005.6
20260505005024 23 360 6.4 19.3 0.00 0.00 0.00 69 1005.6
20260505004522 24 360 8.0 22.5 0.00 0.00 0.00 69 1005.7
20260505004022 24 360 11.3 22.5 0.00 0.00 0.00 68 1005.8
20260505003522 24 360 12.9 22.5 0.00 0.00 0.00 68 1005.8
20260505003056 24 360 12.9 22.5 0.00 0.00 0.00 68 1005.8
20260505002551 24 360 12.9 25.7 0.00 0.00 0.00 67 1005.9
20260505002052 25 360 16.1 27.4 0.00 0.00 0.00 67 1006.2
20260505001552 25 360 11.3 27.4 0.00 0.00 0.00 67 1006.1
20260505001053 25 186 14.5 20.9 0.00 0.00 0.00 66 1005.9
20260505000551 25 180 14.5 29.0 0.00 0.00 0.00 66 1006.0
20260505000050 25 209 19.3 29.0 0.00 0.00 0.00 65 1006.0
20260504235548 25 188 14.5 32.2 0.00 0.00 0.00 65 1006.0
20260504235047 25 182 17.7 32.2 0.00 0.00 0.00 64 1005.9
20260504234546 25 188 19.3 29.0 0.00 0.00 0.00 64 1006.0
20260504234048 25 173 16.1 27.4 0.00 0.00 0.00 64 1006.2
20260504233545 25 194 16.1 35.4 0.00 0.00 0.00 64 1006.3
20260504233045 25 200 19.3 35.4 0.00 0.00 0.00 64 1006.3
20260504232546 25 212 14.5 33.8 0.00 0.00 0.00 64 1006.4
20260504232046 25 213 16.1 27.4 0.00 0.00 0.00 64 1006.4
20260504231544 25 178 16.1 27.4 0.00 0.00 0.00 64 1006.4
20260504231045 25 195 16.1 33.8 0.00 0.00 0.00 64 1006.4
20260504230546 25 209 19.3 32.2 0.00 0.00 0.00 63 1006.4
20260504230042 25 198 22.5 40.2 0.00 0.00 0.00 63 1006.5
20260504225540 25 199 20.9 40.2 0.00 0.00 0.00 62 1006.4
20260504225043 26 188 22.5 33.8 0.00 0.00 0.00 62 1006.6
20260504224541 25 215 19.3 33.8 0.00 0.00 0.00 63 1006.6
20260504224042 26 224 19.3 38.6 0.00 0.00 0.00 62 1006.8
20260504223541 26 187 19.3 38.6 0.00 0.00 0.00 62 1006.8
20260504223039 26 194 17.7 27.4 0.00 0.00 0.00 62 1006.7
20260504222538 26 209 17.7 37.0 0.00 0.00 0.00 63 1006.8
20260504222041 26 196 19.3 37.0 0.00 0.00 0.00 62 1006.8
20260504221540 26 208 22.5 32.2 0.00 0.00 0.00 62 1006.6
20260504221038 26 180 22.5 32.2 0.00 0.00 0.00 62 1006.9
20260504220537 26 219 20.9 30.6 0.00 0.00 0.00 63 1007.0
20260504220036 26 223 17.7 37.0 0.00 0.00 0.00 62 1007.2
20260504215533 26 212 22.5 37.0 0.00 0.00 0.00 61 1007.1
20260504215036 26 198 17.7 29.0 0.00 0.00 0.00 62 1007.1
20260504214539 26 207 17.7 35.4 0.00 0.00 0.00 61 1007.3
20260504214033 26 202 19.3 35.4 0.00 0.00 0.00 61 1007.2
20260504213533 26 232 20.9 33.8 0.00 0.00 0.00 61 1007.6
20260504213031 26 219 20.9 37.0 0.00 0.00 0.00 61 1007.4
20260504212530 26 186 19.3 35.4 0.00 0.00 0.00 63 1007.6
20260504212028 26 209 16.1 37.0 0.00 0.00 0.00 62 1007.7
20260504211528 26 180 24.1 38.6 0.00 0.00 0.00 61 1007.8
20260504211027 26 228 20.9 32.2 0.00 0.00 0.00 62 1007.9
20260504210528 26 188 19.3 32.2 0.00 0.00 0.00 62 1008.0
20260504210027 26 194 20.9 40.2 0.00 0.00 0.00 62 1008.0
20260504205524 26 203 17.7 40.2 0.00 0.00 0.00 62 1008.1
20260504205023 25 192 17.7 40.2 0.00 0.00 0.00 63 1008.3
20260504204522 26 200 20.9 40.2 0.00 0.00 0.00 62 1008.2
20260504204022 26 178 20.9 40.2 0.00 0.00 0.00 62 1008.4
20260504203522 26 196 19.3 40.2 0.00 0.00 0.00 61 1008.4
20260504203021 26 194 24.1 38.6 0.00 0.00 0.00 61 1008.7
20260504202521 26 219 22.5 38.6 0.00 0.00 0.00 64 1008.8
20260504202019 25 198 22.5 38.6 0.00 0.00 0.00 62 1008.8
20260504201519 26 227 20.9 33.8 0.00 0.00 0.00 62 1008.8
20260504201018 25 202 20.9 32.2 0.00 0.00 0.00 62 1009.1
20260504200518 25 169 19.3 35.4 0.00 0.00 0.00 62 1009.1
20260504200033 26 196 20.9 35.4 0.00 0.00 0.00 63 1009.2
20260504195546 26 203 19.3 32.2 0.00 0.00 0.00 62 1009.6
20260504195048 26 184 19.3 32.2 0.00 0.00 0.00 61 1009.5
20260504194548 26 209 20.9 32.2 0.00 0.00 0.00 60 1009.6
20260504194047 25 190 19.3 32.2 0.00 0.00 0.00 61 1009.4
20260504193545 25 273 19.3 35.4 0.00 0.00 0.00 62 1009.4
20260504193044 25 190 17.7 35.4 0.00 0.00 0.00 62 1009.5
20260504192513 25 214 24.1 45.1 0.00 0.00 0.00 61 1009.6
20260504192012 25 223 24.1 40.2 0.00 0.00 0.00 61 1009.6
20260504191524 25 202 17.7 40.2 0.00 0.00 0.00 62 1009.8
20260504191010 25 198 19.3 41.8 0.00 0.00 0.00 62 1009.9
20260504190509 25 194 22.5 41.8 0.00 0.00 0.00 61 1010.0
20260504190012 25 196 25.7 37.0 0.00 0.00 0.00 62 1010.0
20260504185540 25 180 17.7 38.6 0.00 0.00 0.00 61 1010.1
20260504185038 25 189 20.9 33.8 0.00 0.00 0.00 61 1010.1
20260504184551 25 205 19.3 35.4 0.00 0.00 0.00 62 1010.2
20260504184036 25 206 19.3 30.6 0.00 0.00 0.00 62 1010.2
20260504183535 25 203 19.3 33.8 0.00 0.00 0.00 61 1010.1
20260504183041 25 178 17.7 33.8 0.00 0.00 0.00 62 1010.2
20260504182529 25 199 17.7 33.8 0.00 0.00 0.00 62 1010.4
20260504182030 24 217 20.9 33.8 0.00 0.00 0.00 62 1010.4